Find OneWeb SL0439

NORAD ID: 51635 Int'l Des: 2022-012 Owner: ONEWEBN Country: UK Constellation: oneweb operational
LEOCIRCULARPOLARONEWEB_TYPE

实时位置

正在加载3D地球...

关于 OneWeb SL0439

正在加载描述...

即将过境

Passes for default location (London). Set your location on the main map for personalized predictions.

高度历史

Loading altitude history...

两行轨道根数

1 51635U 22012P 26124.50581594 -.00000461 00000-0 -13567-2 0 9996
2 51635 87.8855 44.9614 0001979 79.5800 280.5550 13.10375441203601
Epoch: May 4, 2026 • Age: 7 hours

当前状态

高度 1228.4 km
速度 7.24 km/s
星下点 -16.78°S, 109.2°W
发射日期 Feb 10, 2022
运行时间 4.2 years
类型 internet

技术详情

分类 Payload
质量 148.00 kg
干质量 140.00 kg
总质量 148.00 kg
长度 1.30 m
直径 1.00 m
跨度 5.00 m
形状 Trapezoid+2 pan
制造商 ONEWUS
平台类型 ARROW
阶段状态 In Orbit
所有者/国家 ONEWEBN/UK

Most Searched